Wind_Speed
102 99 95 94 93 89 82 81 80 78 79 77 77 75 76 68 66 68 65 66 68 69 70 72 69 74 74 69 74 70 71 69 76 71 82 81 83 87 92 92 96 98 101
98 107 107 103 100 95 90 91 87 85 84 84 82 79 77 78 73 70 71 72 75 72 71 64 67 66 74 77 76 80 81 81 80 81 83 85 86 89 92 98 99 100 102
85 86 92 100 101 96 95 94 94 92 90 89 90 88 90 88 83 81 83 84 84 83 85 83 84 90 88 91 97 91 94 93 89 92 97 100 99 105 100 106 102 105 109
72 85 90 94 102 104 100 103 99 98 97 94 93 94 92 95 96 91 92 93 92 93 92 90 92 96 98 100 102 104 104 107 105 106 111 111 110 105 111 111 111 109 107
57 73 81 95 98 105 101 101 102 98 99 103 102 103 102 106 103 104 107 106 105 104 103 104 106 107 107 107 107 110 111 114 109 107 103 105 105 105 108 104 97 99 94
38 51 62 71 91 98 97 101 102 105 105 99 101 99 105 109 109 113 118 116 116 113 111 112 113 115 115 110 105 101 97 97 99 97 96 96 95 94 87 85 78 72 62
20 27 36 48 58 68 81 88 98 98 98 101 103 106 111 110 112 114 115 118 119 118 118 117 107 101 97 94 91 88 89 88 87 87 84 79 73 68 67 63 59 55 50
12 15 22 26 31 40 49 54 58 66 75 79 80 80 80 81 85 89 91 90 87 86 87 87 83 80 77 74 74 72 71 70 71 67 65 62 57 56 49 44 40 39 40
14 12 13 17 22 26 27 30 33 37 41 45 49 53 54 56 58 62 67 62 59 59 60 62 64 66 67 67 65 64 63 59 57 53 50 47 38 34 34 32 32 34 38
27 20 12 9 10 13 17 22 27 31 34 34 36 39 40 39 40 41 43 41 36 30 33 41 43 43 45 43 45 43 44 43 40 34 27 26 26 27 29 28 32 36 40
25 24 20 16 10 7 6 8 12 16 20 22 24 24 23 20 20 17 16 15 13 8 7 10 13 17 21 25 25 22 20 20 20 20 20 22 22 25 28 32 34 38 41
20 20 20 19 17 15 12 8 6 5 4 4 6 7 9 10 12 13 14 13 12 12 10 7 4 1 1 4 7 8 9 11 13 15 19 23 27 29 30 31 33 35 37
21 19 17 16 15 13 12 11 10 10 9 8 8 8 9 10 10 11 12 12 13 12 10 7 5 5 5 5 6 8 11 14 17 20 22 24 25 27 30 32 35 37 42
29 24 20 18 16 15 15 15 14 12 12 12 13 13 13 14 14 15 14 14 13 13 13 12 12 11 12 12 12 13 14 17 19 22 24 27 30 32 35 37 39 42 45
33 30 28 24 21 21 19 18 17 16 17 17 17 17 17 17 18 19 19 18 16 16 16 17 16 16 15 15 16 19 22 24 26 28 31 34 35 38 40 44 47 50 50
34 32 33 31 27 23 21 21 21 20 20 20 20 20 19 19 19 19 19 20 20 21 22 22 22 23 24 26 27 28 30 31 33 36 40 43 44 46 49 51 54 58 59
46 38 37 35 34 34 32 29 26 23 25 25 25 24 24 23 24 24 24 24 24 25 25 25 26 27 29 31 32 34 36 38 40 42 46 49 53 55 58 59 61 63 65
53 51 50 41 36 36 36 37 37 35 32 30 30 32 31 29 29 29 29 30 31 31 31 32 33 35 36 38 39 41 43 46 48 50 53 55 57 59 61 63 65 68 67
52 56 53 45 42 39 41 39 38 41 41 38 38 40 38 38 38 38 38 38 38 38 39 40 41 43 43 45 48 48 51 53 56 58 59 61 62 63 65 68 69 70 72
54 56 55 51 46 49 49 49 45 46 40 40 41 44 44 45 46 45 43 43 44 44 45 47 47 49 52 54 56 57 58 61 62 65 66 68 68 68 68 70 72 74 73
55 57 59 57 55 53 55 54 48 51 56 52 47 46 47 51 53 51 50 49 50 51 55 54 54 56 58 60 63 62 64 66 67 69 72 73 73 72 74 75 77 74 73
58 53 59 61 62 59 58 58 56 56 52 54 59 62 61 58 53 56 57 58 59 57 59 60 61 62 64 65 67 67 69 71 72 73 76 79 80 78 82 80 79 75 76
53 52 55 60 62 63 61 61 57 58 58 61 61 64 61 61 61 64 66 65 64 65 68 68 66 68 68 68 68 70 72 74 76 79 83 84 84 86 82 79 79 79 77
50 51 54 56 60 63 64 65 64 63 63 64 64 64 65 63 62 65 67 66 66 67 68 68 68 68 69 70 72 74 78 81 82 85 86 84 81 79 79 81 83 80 78
47 50 53 56 58 61 65 67 69 69 67 67 66 67 69 69 64 62 64 64 66 68 69 70 71 74 76 76 78 82 83 82 80 80 80 81 82 84 86 86 87 85 83
50 51 56 59 60 63 66 68 70 72 70 70 69 68 69 70 72 71 70 69 69 70 71 72 72 74 77 81 82 80 80 81 84 86 85 85 87 87 88 88 86 84 82
Wind_Direction
227 228 232 236 236 234 233 233 233 233 235 237 243 248 252 256 261 262 262 268 268 273 272 275 277 281 281 279 283 282 279 283 289 282 288 288 287 288 291 294 294 292 294
229 232 234 236 237 237 236 236 234 236 238 243 246 247 249 252 253 257 261 262 266 265 268 267 267 265 271 274 276 275 278 282 285 283 284 283 286 286 288 291 290 292 293
230 231 232 231 234 238 238 238 240 239 241 244 248 250 250 251 256 257 262 264 265 265 265 267 268 273 271 275 279 279 280 281 278 279 283 284 286 288 289 290 295 295 296
236 233 233 236 236 239 242 243 242 244 245 247 250 252 253 254 255 259 260 265 267 266 266 270 272 272 274 276 279 282 283 284 284 286 286 287 287 289 294 294 296 296 299
241 240 241 238 239 238 243 247 248 249 249 252 255 256 257 257 258 260 261 263 265 266 269 272 273 274 275 277 278 280 282 283 284 285 286 287 288 291 292 294 295 296 298
242 242 243 245 242 243 247 249 250 252 253 259 259 261 261 261 264 266 267 269 270 273 275 277 278 278 279 279 279 280 279 279 282 284 286 290 291 293 294 297 298 297 296
263 250 246 246 247 248 250 253 252 252 254 256 259 262 263 264 265 267 270 272 272 271 272 274 275 275 276 276 277 276 277 279 281 284 288 292 293 294 295 299 298 299 304
289 271 257 253 252 251 250 251 252 254 255 257 260 262 264 266 267 268 270 272 272 272 272 272 272 272 272 273 273 276 279 281 284 288 292 294 295 296 294 297 299 300 308
354 314 286 266 259 258 256 254 256 258 260 261 264 266 268 270 273 275 276 278 275 272 267 265 266 267 269 272 275 277 283 286 286 289 290 291 291 292 296 296 302 319 321
25 19 1 329 299 280 273 268 264 262 264 267 270 274 278 281 283 284 287 289 285 277 264 257 260 262 264 265 269 276 283 284 283 283 286 291 293 291 295 314 321 321 318
22 22 23 21 11 342 306 283 277 274 273 275 275 280 285 287 294 305 311 318 325 325 296 274 268 267 266 269 272 270 268 274 283 290 296 298 304 313 322 324 322 321 317
17 25 27 22 16 13 12 5 357 0 349 316 309 311 313 325 335 351 7 13 17 28 33 44 58 78 295 280 277 283 296 298 298 305 316 322 325 324 324 322 318 321 320
356 359 5 19 23 21 20 15 12 11 4 3 3 357 358 1 4 13 19 22 29 34 37 38 37 41 29 0 345 330 326 330 333 331 330 329 327 323 322 320 318 321 322
339 340 343 343 348 356 4 11 14 14 14 11 7 7 6 7 8 8 12 15 16 19 18 11 10 10 0 351 344 342 339 335 330 325 320 317 315 315 317 315 315 317 321
325 327 327 330 330 331 332 336 342 347 349 351 352 353 355 357 0 359 357 357 358 0 358 352 347 343 341 338 331 323 321 321 320 318 314 312 312 313 315 316 316 318 320
318 311 315 313 314 315 316 316 318 322 324 325 324 325 327 331 334 335 335 333 334 336 337 336 333 330 326 324 321 319 319 316 314 313 313 314 315 315 316 317 320 321 323
312 307 306 299 304 304 304 305 302 308 313 315 314 313 314 315 317 316 317 317 318 319 320 320 317 315 314 315 316 316 315 315 314 314 313 314 316 318 318 317 317 318 320
305 300 300 290 287 293 293 297 297 299 294 297 301 302 302 304 305 306 306 307 309 308 309 309 308 309 311 311 312 312 312 312 313 314 314 314 314 313 314 315 316 316 316
297 287 290 285 280 286 285 284 283 289 290 291 292 293 293 296 296 297 299 300 301 302 304 306 308 308 308 308 309 309 310 310 310 310 311 312 311 311 311 313 313 313 314
296 290 281 278 279 285 282 279 280 277 276 280 281 284 290 293 294 294 293 295 298 300 301 303 305 303 302 303 304 305 307 308 307 306 306 306 307 308 310 311 312 311 311
291 285 282 277 274 273 273 275 265 277 287 274 268 274 281 291 287 282 282 285 289 293 298 298 295 296 295 296 300 299 301 303 303 302 302 303 305 306 307 309 313 313 314
292 281 275 273 270 268 266 270 270 263 262 265 271 273 276 277 274 276 286 287 288 292 293 292 293 293 292 293 295 296 300 300 299 298 300 301 302 304 303 307 311 312 314
290 276 269 267 266 265 265 265 264 263 267 270 272 275 277 278 277 277 279 284 284 283 285 289 292 294 293 293 293 293 295 296 296 297 298 300 299 298 302 308 308 312 311
284 276 270 263 262 261 262 263 265 262 260 263 267 271 275 276 273 272 278 284 285 284 286 287 288 290 289 290 292 294 294 295 296 295 295 295 297 301 303 304 308 308 307
285 280 276 273 264 259 259 258 260 262 262 263 266 271 272 273 278 277 279 280 283 286 286 288 289 290 294 297 297 296 296 295 295 297 297 298 299 300 301 304 303 302 304
288 284 282 278 272 265 258 257 258 258 260 263 267 269 271 273 276 279 281 281 282 284 286 289 293 296 297 297 296 294 294 295 296 296 296 296 296 296 296 296 297 297 301
Height
10521 10528 10534 10538 10545 10551 10555 10559 10564 10566 10568 10570 10572 10576 10578 10579 10580 10582 10582 10582 10583 10585 10584 10586 10580 10579 10575 10571 10569 10568 10565 10564 10562 10558 10551 10548 10544 10538 10530 10525 10521 10516 10509
10509 10516 10520 10526 10531 10537 10543 10546 10549 10552 10556 10559 10561 10562 10563 10565 10568 10570 10568 10571 10573 10573 10570 10572 10570 10567 10561 10558 10558 10554 10554 10552 10549 10544 10539 10536 10532 10527 10521 10516 10508 10501 10494
10498 10502 10507 10512 10517 10522 10528 10532 10536 10539 10541 10545 10548 10549 10550 10550 10555 10555 10556 10555 10558 10558 10558 10556 10558 10554 10550 10541 10540 10542 10537 10535 10533 10528 10523 10520 10516 10510 10505 10499 10492 10482 10476
10487 10491 10495 10500 10505 10509 10514 10518 10522 10525 10529 10531 10532 10534 10534 10535 10536 10538 10539 10538 10538 10539 10540 10542 10540 10538 10535 10530 10527 10521 10516 10512 10512 10509 10503 10500 10497 10490 10486 10479 10472 10463 10456
10473 10478 10482 10487 10491 10496 10500 10506 10509 10512 10514 10515 10515 10516 10518 10518 10517 10516 10516 10517 10519 10517 10520 10520 10520 10520 10517 10515 10510 10503 10496 10490 10490 10486 10483 10478 10476 10471 10465 10458 10451 10444 10439
10462 10465 10468 10472 10477 10481 10486 10489 10493 10496 10498 10499 10502 10500 10501 10500 10499 10497 10495 10495 10495 10499 10495 10494 10493 10492 10490 10489 10485 10481 10476 10470 10469 10467 10465 10463 10457 10452 10444 10438 10433 10426 10419
10454 10456 10458 10461 10463 10467 10471 10473 10475 10477 10478 10481 10483 10482 10481 10481 10477 10474 10472 10472 10473 10474 10474 10473 10468 10466 10465 10463 10462 10459 10457 10457 10455 10454 10451 10446 10441 10436 10429 10424 10418 10411 10406
10449 10450 10451 10452 10454 10456 10458 10458 10459 10460 10462 10464 10465 10465 10463 10461 10457 10454 10450 10449 10450 10449 10446 10444 10443 10443 10442 10442 10443 10444 10444 10442 10441 10440 10436 10432 10427 10422 10417 10413 10408 10404 10397
10448 10446 10446 10446 10446 10446 10447 10447 10448 10449 10451 10452 10452 10449 10449 10446 10443 10438 10430 10431 10428 10426 10424 10424 10424 10425 10426 10427 10428 10430 10430 10430 10429 10426 10422 10419 10415 10413 10411 10406 10402 10395 10390
10451 10447 10444 10442 10440 10439 10439 10439 10440 10441 10441 10441 10441 10439 10438 10436 10431 10425 10418 10412 10409 10407 10407 10407 10409 10411 10413 10418 10418 10419 10420 10420 10417 10414 10413 10411 10409 10407 10403 10398 10393 10388 10383
10455 10452 10449 10446 10443 10441 10439 10438 10437 10436 10436 10435 10434 10433 10431 10429 10425 10420 10414 10407 10402 10400 10399 10400 10401 10402 10405 10408 10410 10411 10412 10411 10411 10410 10407 10405 10403 10399 10394 10390 10386 10381 10376
10460 10456 10452 10449 10446 10443 10441 10440 10438 10436 10435 10434 10433 10431 10429 10426 10422 10417 10412 10408 10406 10403 10401 10401 10402 10403 10405 10407 10409 10409 10408 10408 10407 10405 10402 10398 10394 10391 10388 10385 10381 10376 10370
10461 10457 10454 10451 10448 10445 10442 10440 10437 10435 10433 10432 10430 10428 10425 10423 10420 10417 10414 10411 10408 10406 10406 10406 10406 10406 10406 10407 10407 10406 10405 10403 10400 10398 10395 10392 10389 10385 10382 10379 10375 10370 10364
10459 10457 10453 10450 10447 10444 10441 10439 10437 10434 10432 10430 10427 10425 10423 10420 10418 10417 10414 10412 10410 10409 10408 10408 10407 10406 10405 10404 10403 10400 10398 10397 10395 10392 10390 10388 10385 10381 10376 10372 10367 10362 10356
10455 10453 10450 10448 10444 10441 10439 10437 10434 10432 10430 10428 10426 10423 10422 10420 10418 10416 10414 10413 10411 10409 10407 10406 10405 10403 10401 10400 10398 10396 10394 10392 10390 10387 10385 10382 10378 10373 10368 10362 10357 10352 10345
10449 10448 10446 10443 10442 10439 10437 10435 10432 10430 10428 10425 10423 10421 10419 10418 10416 10415 10413 10411 10409 10406 10404 10402 10401 10399 10397 10395 10393 10391 10388 10385 10382 10379 10375 10370 10365 10360 10355 10348 10342 10336 10330
10441 10439 10438 10437 10435 10432 10431 10429 10427 10425 10423 10421 10419 10417 10415 10413 10411 10410 10408 10406 10404 10402 10400 10398 10396 10394 10391 10388 10385 10382 10379 10376 10372 10368 10364 10358 10352 10346 10340 10334 10329 10322 10316
10434 10432 10429 10428 10426 10425 10423 10421 10419 10417 10416 10415 10412 10410 10409 10407 10405 10403 10401 10399 10396 10394 10392 10390 10388 10385 10382 10379 10376 10372 10368 10364 10360 10356 10351 10346 10341 10335 10329 10322 10315 10309 10302
10423 10421 10420 10418 10416 10414 10413 10411 10411 10409 10407 10406 10403 10400 10400 10398 10396 10394 10392 10390 10388 10385 10383 10380 10377 10373 10370 10367 10364 10360 10356 10351 10347 10342 10338 10333 10328 10322 10317 10311 10304 10296 10289
10407 10404 10403 10403 10402 10402 10400 10398 10396 10395 10394 10393 10390 10387 10387 10386 10383 10381 10380 10377 10375 10372 10370 10367 10364 10361 10357 10354 10350 10346 10342 10337 10332 10327 10322 10318 10313 10308 10303 10297 10291 10283 10275
10393 10388 10384 10384 10384 10384 10384 10382 10381 10383 10380 10378 10374 10373 10374 10374 10370 10366 10364 10362 10359 10358 10356 10354 10350 10347 10343 10339 10335 10331 10326 10322 10317 10312 10307 10301 10296 10292 10287 10281 10275 10266 10260
10374 10371 10367 10365 10363 10365 10364 10364 10364 10363 10361 10361 10358 10356 10357 10359 10353 10350 10349 10346 10344 10342 10340 10338 10335 10331 10327 10323 10319 10315 10310 10305 10300 10296 10290 10285 10280 10274 10269 10264 10256 10249 10243
10351 10349 10346 10344 10344 10343 10343 10345 10345 10345 10344 10342 10341 10340 10339 10340 10338 10335 10332 10330 10328 10325 10322 10320 10318 10313 10310 10307 10303 10298 10293 10287 10283 10278 10273 10267 10262 10256 10251 10243 10236 10231 10225
10327 10326 10325 10323 10322 10322 10323 10323 10323 10323 10323 10321 10321 10321 10319 10319 10318 10317 10314 10312 10310 10307 10304 10302 10299 10294 10290 10287 10283 10278 10272 10268 10263 10258 10252 10246 10240 10235 10228 10223 10218 10212 10208
10305 10305 10304 10303 10301 10301 10301 10301 10300 10300 10300 10300 10299 10299 10298 10296 10297 10296 10296 10293 10289 10286 10283 10281 10277 10272 10268 10264 10260 10255 10250 10246 10240 10232 10227 10221 10216 10211 10206 10202 10199 10192 10187
10287 10284 10283 10282 10280 10278 10278 10278 10278 10278 10279 10280 10280 10279 10278 10277 10275 10275 10273 10272 10268 10265 10263 10259 10254 10249 10244 10241 10237 10231 10225 10219 10214 10209 10203 10198 10193 10188 10185 10181 10176 10171 10167